Location: ??
(34.9503°N, 135.7486°E)
Time: 16:49:43
(UTC+00:00)

Daily predictions for brighter satellites

Satellite Brightness Start Highest point End
(mag) Time Altitude Azimuth Time Altitude Azimuth Time Altitude Azimuth
Cosmos 1975 3.2 12:01:35 10° NNW 12:05:35 59° W 12:06:47 39° SSW
STARLINK-1216 3.8 12:02:18 10° SW 12:06:25 72° NW 12:10:34 10° NE
Meteor 1-12 Rocket 4.4 12:02:17 10° N 12:07:49 56° E 12:09:17 43° SE
STARLINK-1159 4.0 12:03:56 10° NW 12:07:57 51° SW 12:08:23 48° SSW
Meteor 2-4 Rocket 3.7 12:05:21 20° SSW 12:09:06 74° W 12:14:27 10° N
Cosmos 1954 Rocket 4.1 12:04:35 10° N 12:09:48 62° ENE 12:11:00 48° ESE
Spot 2 Rocket 3.4 12:09:37 46° SSE 12:11:09 88° ENE 12:16:13 10° NNW
MetOp-B 4.2 12:08:59 36° S 12:11:13 76° WSW 12:16:35 10° NNW
STARLINK-1237 4.0 12:07:18 10° SW 12:11:25 64° NW 12:15:32 10° NE
Terra 3.1 12:11:39 25° ENE 12:11:50 25° ENE 12:15:40 10° NNE
COSMOS 2406 3.1 12:06:05 10° NNW 12:11:53 82° ENE 12:13:40 46° SSE
Sich 1 Rocket 3.7 12:08:02 10° N 12:12:37 73° W 12:13:53 46° SSW
STARLINK-1171 4.1 12:08:59 10° WNW 12:12:56 45° SW 12:13:12 45° SW
Meteor 1-13 Rocket 4.1 12:12:10 40° S 12:14:15 78° E 12:19:55 10° NNE
STARLINK-1202 4.2 12:12:20 10° WSW 12:16:24 58° NW 12:20:30 10° NE
STARLINK-1155 4.4 12:13:59 10° WNW 12:17:52 40° SW 12:17:57 40° SW
Cosmos 1437 Rocket 3.5 12:21:02 40° NE 12:21:02 40° NE 12:23:41 10° NNE
SEDSat Delta rocket 4.1 12:15:49 10° W 12:22:20 51° SSW 12:23:24 47° SSE
Lacrosse 5 3.5 12:19:28 10° NNW 12:23:31 23° NE 12:25:10 20° ENE
Cosmos 676 Rocket 3.9 12:18:29 10° NNW 12:23:45 87° ENE 12:24:44 60° SSE
STARLINK-1089 4.4 12:21:15 10° NNW 12:25:11 41° NE 12:25:19 41° NE
Okean 2 Rocket 2.9 12:22:37 10° N 12:27:03 84° W 12:27:16 80° SSW
Cosmos 371 Rocket 3.4 12:25:54 40° SW 12:27:37 72° WNW 12:32:29 10° NNE
Cosmos 2297 3.9 12:28:12 48° E 12:28:12 48° E 12:33:26 10° NNE
Cosmos 1932 4.5 12:22:16 10° NNW 12:28:49 74° ENE 12:30:27 51° SE
STARLINK-1107 4.3 12:26:12 10° NW 12:30:06 46° NE 12:30:06 46° NE
STARLINK-1066 4.2 12:31:10 10° NW 12:34:54 49° NNE 12:34:54 49° NNE
STARLINK-1081 4.2 12:36:06 10° NW 12:39:41 52° N 12:39:41 52° N
Okean 1 Rocket 4.2 12:36:18 10° N 12:39:27 33° NE 12:39:27 33° NE
Cosmos 2151 Rocket 3.6 12:35:57 10° N 12:40:17 81° NNW 12:40:17 81° NNW
ISS -0.9 12:42:38 10° N 12:44:12 13° NNE 12:44:16 13° NNE
STARLINK-1070 4.3 12:41:03 10° NW 12:44:27 52° N 12:44:27 52° N
Cosmos 2082 Rocket 2.3 12:40:46 10° NNW 12:46:26 59° ENE 12:46:48 58° E
STARLINK-1069 4.4 12:46:00 10° NW 12:49:13 51° NNW 12:49:13 51° NNW
Cosmos 1833 Rocket 2.6 12:45:53 10° NNW 12:51:29 74° WSW 12:51:56 69° SSW
SPOT 5 2.9 12:53:53 83° WSW 12:53:55 83° WSW 12:59:12 10° NNW
Cosmos 2369 Rocket 4.0 12:57:31 17° ENE 12:57:31 17° ENE 12:59:22 10° NE
CARTOSAT-1 4.0 12:56:01 57° NW 12:56:01 57° NW 12:59:42 10° NNW
Cosmos 1943 Rocket 3.4 13:01:33 28° ENE 13:01:33 28° ENE 13:04:34 10° NE
Cosmos 1066 Rocket 4.1 13:01:44 75° WSW 13:01:59 77° W 13:07:22 10° N
Cosmos 972 Rocket 4.3 13:01:46 67° SSW 13:02:37 83° WNW 13:09:09 10° NNE
BREEZE-M DEB (TANK) 4.3 12:55:58 10° NW 13:06:03 43° NNE 13:07:42 33° ENE
ATLAS 2AS CENTAUR R/B 4.4 13:11:06 22° E 13:11:06 22° E 13:15:04 10° NE
Cosmos 304 Rocket 4.3 13:12:39 54° NW 13:12:39 54° NW 13:17:05 10° N
Cosmos 1461 4.3 13:14:23 37° NNW 13:14:23 37° NNW 13:17:23 10° NNE
Meteor 1-15 Rocket 4.2 13:07:39 10° N 13:13:37 82° W 13:13:42 81° WSW
Nadezhda 4 Rocket 4.3 13:17:57 53° WSW 13:18:57 60° W 13:25:01 10° N
ATLAS 3B CENTAUR R/B 4.0 13:12:36 10° WSW 13:17:59 27° SW 13:17:59 27° SW
SeaSat 1 3.2 13:38:19 10° NNE 13:42:39 48° NW 13:42:39 48° NW
Terra 3.5 13:50:32 26° WNW 13:50:32 26° WNW 13:53:32 10° NW
Aureole 3 Rocket 4.3 13:55:34 10° N 14:01:23 68° ENE 14:01:23 68° ENE
Lacrosse 5 3.5 14:01:48 10° NW 14:04:21 29° WNW 14:04:21 29° WNW
USA 215 3.9 14:06:45 42° ENE 14:08:06 48° NE 14:14:21 10° NNW
Cosmos 2082 Rocket 4.4 14:26:38 10° WNW 14:28:39 15° W 14:28:39 15° W
NOSS 3-4 (A) 4.1 14:32:52 47° NE 14:32:52 47° NE 14:37:11 10° NNE
NOSS 3-4 (C) 4.1 14:32:59 47° NE 14:32:59 47° NE 14:37:18 10° NNE
FALCON 9 R/B 4.1 14:36:34 29° E 14:36:34 29° E 14:42:34 10° E
Cosmos 1655 Rocket 4.3 14:35:50 62° NNW 14:35:50 62° NNW 14:41:02 10° N
S3M 4.3 14:30:42 10° N 14:35:44 62° N 14:35:44 62° N
Cosmos 2369 Rocket 3.3 14:39:16 39° NW 14:39:16 39° NW 14:44:00 10° N
CENTAUR R/B 3.8 14:33:36 10° NNW 14:41:37 51° NE 14:44:10 40° E
Cosmos 1943 Rocket 3.8 14:43:01 26° WNW 14:43:16 26° WNW 14:47:52 10° N
ATLAS 2AS CENTAUR R/B 3.1 14:58:28 62° W 14:59:17 66° WNW 15:07:15 10° NNE
SL-4 R/B 4.3 15:02:17 27° NNE 15:02:17 27° NNE 15:04:38 10° NE
NOSS 3-2 (A) 4.1 15:04:39 10° NW 15:11:58 66° W 15:11:58 66° W
USA 238 DEB 4.3 15:13:29 10° NW 15:19:14 51° WNW 15:19:14 51° WNW
USA 238 4.3 15:13:34 10° NW 15:19:22 51° WNW 15:19:22 51° WNW
ATLAS CENTAUR R/B 3.7 15:24:39 23° N 15:24:39 23° N 15:26:22 10° NNE
COSMOS 2455 3.7 15:43:20 42° NW 15:43:20 42° NW 15:48:39 10° NNE
USA 215 4.5 15:54:04 28° WNW 15:54:04 28° WNW 15:57:15 10° WNW
ADEOS II 4.1 16:11:32 10° NE 16:15:05 18° E 16:15:44 18° ESE
CZ-2D R/B 2.5 16:16:06 10° NNE 16:20:40 55° ENE 16:20:40 55° ENE
Cosmos 1386 Rocket 4.3 16:21:39 81° NNW 16:21:39 81° NNW 16:27:31 10° N
Cosmos 1697 Rocket 3.8 16:23:09 33° ESE 16:23:11 33° ESE 16:28:13 10° NE
CZ-4C R/B 3.1 16:24:32 35° E 16:24:32 35° E 16:28:34 10° NE
Cosmos 1709 Rocket 4.2 16:24:18 56° ESE 16:24:46 58° E 16:30:45 10° NNE
Resurs 1-4 Rocket 2.4 16:20:16 10° NNE 16:25:03 64° ENE 16:25:03 64° ENE
Cosmos 2227 Rocket 3.8 16:23:19 10° N 16:28:18 31° ENE 16:32:24 14° ESE
ATLAS 3B R/B 2.5 16:23:03 10° NW 16:29:55 75° WSW 16:30:05 75° SW
Meteor 2-1 Rocket 4.4 16:26:32 10° N 16:32:00 63° E 16:32:16 62° E
CENTAUR R/B 3.8 16:24:38 10° NW 16:31:18 38° W 16:31:18 38° W
GEOS 3 Rocket 3.8 16:33:12 65° NNW 16:33:12 65° NNW 16:37:39 10° NNW
BREEZE M DEB (TANK) 4.5 16:32:38 54° S 16:34:46 71° SE 17:06:54 10° NE
Cosmos 1656 3.6 16:41:14 84° NNW 16:41:14 84° NNW 16:46:48 10° NNE
Cosmos 1455 3.9 16:39:03 10° NNE 16:41:32 30° NE 16:41:32 30° NE
NPP 3.6 16:37:07 10° NNE 16:42:27 83° E 16:42:27 83° E
SJ 16-02 2.5 16:40:47 10° N 16:44:55 37° ENE 16:45:24 36° E
Meteor 2-10 Rocket 3.7 16:45:38 10° N 16:50:49 62° E 16:51:21 58° ESE
Nadezhda 1 Rocket 4.0 16:45:30 10° NNW 16:51:34 58° W 16:51:36 58° W
CZ-4B R/B 3.4 16:48:33 10° NNE 16:53:46 88° WNW 16:53:48 88° WSW
Cosmos 2369 3.7 17:00:37 64° SSE 17:01:17 71° ESE 17:06:54 10° NNE
SL-19 R/B 4.4 17:01:06 63° SSW 17:02:03 76° WSW 17:08:26 10° NNW
Meteor 1-21 Rocket 4.2 17:02:45 60° W 17:02:55 60° W 17:08:30 10° N
Cosmos 841 Rocket 3.8 17:06:39 52° SE 17:07:27 59° ESE 17:12:35 10° NNE
Cosmos 1703 3.8 17:10:47 54° N 17:10:47 54° N 17:13:55 10° N
CBERS-1 3.9 17:05:21 10° NNE 17:10:30 87° ESE 17:11:04 71° S
SL-16 R/B 2.5 17:13:00 54° SW 17:13:40 57° W 17:19:43 10° NNW
BREEZE-M DEB (TANK) 4.3 17:09:34 10° NW 17:14:05 77° SW 17:29:00 10° SE
Cosmos 1980 Rocket 2.7 17:14:35 39° SSE 17:16:09 51° ESE 17:21:35 10° NNE
Cosmos 2184 Rocket 4.4 17:17:19 31° SSE 17:20:15 59° E 17:26:17 10° NNE
IRS-1C 4.3 17:15:59 10° NNE 17:21:18 68° ESE 17:22:53 45° SSE
Cosmos 2219 3.2 17:18:06 10° NNW 17:23:39 59° WSW 17:24:15 56° SW
Cosmos 1763 Rocket 3.8 17:24:19 45° W 17:24:44 46° WNW 17:29:38 10° N
IRS-1D 3.6 17:20:33 10° N 17:25:49 67° WNW 17:26:46 55° SW
Cosmos 1825 Rocket 4.1 17:29:22 42° WNW 17:29:22 42° WNW 17:33:08 10° N
STARLINK-43 3.6 17:29:56 64° E 17:29:56 64° E 17:33:11 10° NE
Cosmos 2297 Rocket 2.2 17:31:00 10° NNW 17:36:31 58° WSW 17:38:02 43° SSW
Cosmos 2181 Rocket 4.0 17:31:21 10° NNW 17:37:44 68° W 17:40:36 34° SSW
Cosmos-2242 3.1 17:36:38 10° NNW 17:40:45 53° W 17:40:45 53° W
Cosmos 2082 3.8 17:36:07 10° NNW 17:41:46 74° ENE 17:47:21 10° SSE
Cosmos 2278 3.6 17:40:17 44° SW 17:42:07 76° WNW 17:47:48 10° NNE
ERS-2 3.2 17:43:56 16° SE 17:46:30 43° ENE 17:50:00 10° N
Cosmos 2322 Rocket 4.3 17:44:07 10° SE 17:48:07 20° E 17:52:07 10° NE
STARLINK-75 4.1 17:51:16 32° SE 17:51:20 32° SE 17:54:16 10° ENE
GP-B 4.2 17:48:19 10° NNW 17:52:06 28° W 17:52:07 28° W
Cosmos 2154 Rocket 4.2 17:47:50 19° S 17:52:30 69° E 17:58:44 10° NNE
ARIANE 5 R/B 2.4 17:47:50 10° N 17:52:53 81° WNW 17:55:02 35° SSW
STARLINK-1197 4.4 17:48:56 10° NW 17:53:00 53° NE 17:57:03 10° ESE
Meteor 1-11 4.3 17:51:11 37° SW 17:53:16 59° W 17:58:48 10° N
ADEOS II 2.5 17:49:56 10° N 17:54:56 46° WNW 17:56:40 34° WSW
Cosmos 2058 4.3 17:54:15 13° SSE 17:57:30 36° E 18:01:21 10° NNE
STARLINK-1198 4.2 17:53:54 10° NW 17:58:00 59° NE 18:02:05 10° ESE
Cosmos 1898 Rocket 3.9 17:54:38 10° NNW 17:59:38 42° WSW 18:01:16 33° SW
CZ-2D R/B 3.9 17:57:55 10° NNW 18:00:46 15° WNW 18:02:00 14° W
STARLINK-22 4.2 18:00:43 29° SSE 18:01:12 30° SE 18:04:03 10° ENE
Spot 4 Rocket 4.0 17:57:06 10° NNE 18:02:16 88° ESE 18:05:19 25° SSW
Lacrosse 4 Rocket 2.0 17:58:24 10° NNW 18:02:38 57° ENE 18:06:43 10° SE
STARLINK-1199 4.0 17:58:50 10° NW 18:02:58 66° NE 18:07:04 10° SE
ATLAS CENTAUR R/B 2.9 17:59:17 10° NW 18:03:21 73° SW 18:14:04 10° SSE
Resurs 1-4 Rocket 4.1 18:02:15 10° NW 18:04:44 13° WNW 18:06:08 12° W
Cosmos 1697 Rocket 3.8 18:04:53 23° W 18:07:05 29° WNW 18:11:59 10° N
Cosmos 1937 Rocket 3.6 18:02:11 10° NNW 18:07:16 51° WSW 18:10:40 20° S
STARLINK-1210 3.8 18:03:49 10° NW 18:07:58 74° NE 18:12:05 10° SE
H-2A R/B 2.4 18:04:00 10° SSE 18:08:13 65° ENE 18:12:34 10° N
USA 234 3.5 18:01:55 10° NE 18:08:25 65° SE 18:12:51 22° SSW
Cosmos 2285 Rocket 4.0 18:04:16 10° NNW 18:10:32 61° WSW 18:16:42 10° S
Skynet4D Del rocket 4.4 18:09:33 27° SSW 18:11:27 33° S 18:16:17 10° ESE
CZ-4C R/B 3.5 18:09:42 17° W 18:12:14 24° NW 18:16:50 10° N
Cosmos 2227 Rocket 2.9 18:07:18 10° NW 18:12:15 32° WSW 18:14:07 26° SW
STARLINK-1219 3.6 18:08:47 10° NW 18:12:56 82° NE 18:17:04 10° SE
Meteor 1-28 Rocket 3.1 18:12:44 22° S 18:15:04 71° W 18:18:50 10° NNW
SL-16 R/B 3.1 18:10:43 11° S 18:15:51 45° ESE 18:21:14 10° NE
IDEFIX/ARIANE 42P 2.6 18:12:15 10° NNE 18:17:33 85° ESE 18:21:52 15° SSW
STARLINK-1211 3.5 18:13:45 10° NW 18:17:54 89° SW 18:22:03 10° SE
STARLINK-1301 3.6 18:17:00 31° S 18:18:17 51° SE 18:21:38 10° NE
IRIDIUM 104 4.3 18:15:30 16° S 18:19:41 79° W 18:24:55 10° N
STARLINK-1307 3.8 18:19:21 28° S 18:20:47 47° SE 18:24:06 10° ENE
NOSS 2-1 (C) 3.8 18:20:19 20° S 18:22:24 43° ESE 18:25:38 10° NE
STARLINK-1245 3.5 18:18:44 10° NW 18:22:53 80° SW 18:27:00 10° SE
SJ 16-02 3.2 18:20:34 10° WNW 18:22:20 15° W 18:22:20 15° W
STARLINK-42 2.8 18:21:57 36° SW 18:23:06 90° NW 18:26:18 10° NE
STARLINK-1290 3.6 18:21:50 27° SSW 18:23:22 50° SE 18:26:44 10° NE
Cosmos 1892 2.8 18:21:57 15° S 18:25:01 74° E 18:28:50 10° N
STARLINK-1297 3.5 18:24:17 27° SSW 18:25:55 54° SE 18:29:18 10° NE
NOSS 2-1 (D) 3.6 18:24:40 20° S 18:26:51 50° ESE 18:30:09 10° NE
STARLINK-1233 3.5 18:23:43 10° NW 18:27:51 72° SW 18:31:57 10° SE
IRIDIUM 114 4.3 18:24:38 15° SSW 18:28:50 64° W 18:34:02 10° N
STARLINK-1316 3.1 18:28:00 29° SSW 18:29:22 62° SE 18:32:27 10° NE
STARLINK-26 3.3 18:28:20 27° WSW 18:29:58 60° NW 18:33:23 10° NE
STARLINK-1257 3.0 18:28:52 28° SSW 18:30:16 64° SE 18:33:22 10° NE
STARLINK-1256 3.0 18:29:44 28° SSW 18:31:10 66° SE 18:34:15 10° NE
SL-08 R/B 4.0 18:29:28 20° SSW 18:31:58 32° W 18:36:08 10° NW
STARLINK-1213 2.9 18:30:36 27° SSW 18:32:04 68° SE 18:35:10 10° NE
Nadezhda 3 Rocket 4.0 18:26:23 10° N 18:32:39 76° W 18:38:58 10° S
STARLINK-1204 3.5 18:28:43 10° NW 18:32:49 64° SW 18:36:54 10° SSE
STARLINK-1263 2.9 18:31:27 27° SSW 18:32:58 70° SE 18:36:03 10° NE
STARLINK-1311 2.6 18:32:14 29° SW 18:33:35 85° SE 18:36:34 10° NE
STARLINK-1259 2.9 18:32:21 26° SSW 18:33:52 72° SE 18:36:59 10° NE
STARLINK-1265 2.9 18:32:36 26° SW 18:34:08 72° SE 18:37:14 10° NE
Shenzhou-11 Module 3.8 18:33:43 13° SSE 18:34:32 15° SE 18:36:05 10° ESE
STARLINK-1285 2.9 18:33:12 26° SW 18:34:46 74° SE 18:37:52 10° NE
STARLINK-1296 2.8 18:34:56 25° SW 18:36:34 78° SE 18:39:41 10° NE
STARLINK-1268 2.8 18:35:10 25° SW 18:36:47 79° SE 18:39:53 10° NE
STARLINK-1260 2.8 18:35:48 25° SW 18:37:28 80° SE 18:40:35 10° NE
STARLINK-62 3.5 18:35:48 20° SSW 18:37:40 49° SE 18:40:46 10° NE
STARLINK-1238 3.6 18:33:44 10° NW 18:37:49 57° SW 18:41:51 10° SSE
STARLINK-1318 2.8 18:36:40 24° SW 18:38:23 83° SE 18:41:29 10° NE
COBE Rocket 4.4 18:34:32 13° SSW 18:38:34 40° W 18:43:16 10° NNW
Cosmos 1842 Rocket 3.8 18:34:14 10° NNW 18:38:34 49° W 18:42:51 10° SSW
COSMOS 2441 4.5 18:34:10 10° NNE 18:39:06 81° ESE 18:44:00 10° S
STARLINK-1275 2.8 18:37:32 24° SW 18:39:16 85° SE 18:42:23 10° NE
STARLINK-34 3.4 18:37:36 20° SSW 18:39:32 52° SE 18:42:38 10° NE
STARLINK-55 3.6 18:38:15 21° WSW 18:40:02 45° NW 18:43:08 10° NNE
STARLINK-1309 2.8 18:38:24 23° SW 18:40:10 87° SE 18:43:18 10° NE
STARLINK-1317 3.1 18:38:12 22° SW 18:40:21 86° NW 18:43:50 10° NE
STARLINK-1282 2.8 18:39:15 23° SW 18:41:04 89° SE 18:44:10 10° NE
Cosmos 2341 Rocket 4.1 18:34:41 10° S 18:41:04 87° W 18:47:29 10° N
Cosmos 836 Rocket 4.5 18:36:57 14° SSW 18:41:32 75° WNW 18:46:50 10° NNE
STARLINK-1029 4.0 18:39:33 15° SSW 18:41:43 36° SE 18:44:38 10° ENE
CZ-4B R/B 3.3 18:39:13 10° SE 18:41:54 29° ENE 18:44:35 10° NNE
STARLINK-1313 2.8 18:40:21 22° SW 18:42:10 74° NW 18:45:17 10° NE
STARLINK-1201 3.7 18:38:45 10° NW 18:42:46 50° SW 18:46:45 10° SSE
STARLINK-1279 2.9 18:41:14 22° SW 18:43:05 72° NW 18:46:11 10° NE
STARLINK-1298 2.8 18:41:52 21° SW 18:43:46 84° NW 18:46:53 10° NE
STARLINK-1293 2.8 18:42:44 21° SW 18:44:40 82° NW 18:47:48 10° NE
Cosmos 1869 3.3 18:42:17 10° NNW 18:46:05 54° W 18:49:50 10° S
STARLINK-1255 2.8 18:44:27 20° SW 18:46:27 78° NW 18:49:34 10° NE
STARLINK-1206 3.9 18:43:45 10° WNW 18:47:42 44° SW 18:51:39 10° SSE
Cosmos 1400 Rocket 4.4 18:45:18 10° NW 18:48:17 19° W 18:50:07 15° WSW
STARLINK-28 4.1 18:48:05 15° W 18:50:17 32° NW 18:53:13 10° NNE
MSX 3.8 18:45:12 10° N 18:50:56 71° WNW 18:56:38 10° SSW
SAR-Lupe-1 4.4 18:48:03 10° SSE 18:51:33 68° ENE 18:55:05 10° N
Landsat 5 3.8 18:47:36 10° S 18:51:56 51° W 18:56:21 10° NNW
Cosmos 372 Rocket 4.3 18:47:24 10° NNW 18:52:16 44° WSW 18:57:08 10° S
Cosmos 2360 Rocket 3.5 18:47:31 10° S 18:52:38 38° ESE 18:57:47 10° NE
STARLINK-1205 4.0 18:48:47 10° WNW 18:52:40 40° SW 18:56:32 10° SSE
Cosmos 1076 Rocket 3.9 18:50:04 11° SSW 18:54:01 45° W 18:58:13 10° N
STARLINK-1291 3.2 18:51:27 16° WSW 18:54:01 64° NW 18:57:21 10° NE
STARLINK-1264 3.2 18:53:09 15° WSW 18:55:42 61° NW 18:58:58 10° NE
STARLINK-41 3.8 18:54:26 14° WSW 18:56:51 37° NW 18:59:48 10° NNE
STARLINK-1267 3.3 18:54:45 15° WSW 18:57:23 58° NW 19:00:39 10° NE
STARLINK-1218 4.2 18:53:48 10° WNW 18:57:36 35° SW 19:01:23 10° SSE
STARLINK-80 3.8 18:55:03 14° WSW 18:58:13 53° NW 19:01:56 10° NE
STARLINK-1272 3.3 18:56:20 14° WSW 18:59:02 56° NW 19:02:18 10° NE
BREEZE-M DEB (TANK) 4.0 18:54:16 10° SW 18:59:49 37° SSE 19:02:39 10° ENE
Cosmos 1980 Rocket 3.8 18:56:24 10° WSW 19:00:26 20° WNW 19:04:29 10° N
STARLINK-1207 3.4 18:57:57 13° WSW 19:00:43 53° NW 19:03:58 10° NE
Cosmos 1408 2.7 18:58:34 10° SSW 19:02:13 59° W 19:05:53 10° N
STARLINK-1266 3.5 18:59:36 13° WSW 19:02:27 51° NW 19:05:41 10° NE
STARLINK-1254 4.3 18:58:52 10° WNW 19:02:33 32° SW 19:06:14 10° SSE
STARLINK-1284 3.5 19:01:17 12° WSW 19:04:12 48° NW 19:07:26 10° NE
CZ-2C R/B 4.1 19:01:16 10° NNW 19:04:12 22° WNW 19:07:09 10° SW
STARLINK-1258 3.6 19:02:53 11° WSW 19:05:52 46° NW 19:09:05 10° NE
Okean 3 Rocket 3.9 19:01:36 10° S 19:06:05 73° E 19:10:36 10° N
STARLINK-1283 4.2 19:03:38 10° WSW 19:07:06 40° NW 19:10:40 10° NNE
STARLINK-1231 4.5 19:03:57 10° WNW 19:07:30 28° SW 19:11:05 10° S
STARLINK-1292 3.7 19:04:35 11° WSW 19:07:37 44° NW 19:10:51 10° NNE
PAYLOAD A 3.8 19:03:16 10° N 19:07:58 77° WNW 19:12:42 10° SSW
STARLINK-1274 3.8 19:06:17 10° WSW 19:09:25 43° NW 19:12:37 10° NNE
Cosmos 1315 Rocket 3.7 19:07:10 10° NNW 19:10:35 29° W 19:14:00 10° SSW
STARLINK-1289 3.8 19:08:03 10° WSW 19:11:13 41° NW 19:14:22 10° NNE
STARLINK-1303 3.9 19:09:47 10° WSW 19:12:58 40° NW 19:16:10 10° NNE
STARLINK-1312 4.0 19:11:37 10° WSW 19:14:45 38° NW 19:17:54 10° NNE
STARLINK-1224 4.4 19:10:53 10° NW 19:14:58 57° NE 19:19:02 10° ESE
NOSS 2-1 (E) 3.6 19:13:07 10° SW 19:16:24 40° NW 19:19:41 10° NNE
Cosmos 864 Rocket 4.5 19:11:35 10° S 19:17:43 80° W 19:23:52 10° N
STARLINK-1225 4.2 19:15:49 10° NW 19:19:57 64° NE 19:24:02 10° SE
Cosmos 2221 4.0 19:17:03 10° NW 19:20:10 20° W 19:23:17 10° SW
Cosmos 2218 Rocket 4.1 19:15:19 10° SSW 19:21:34 68° W 19:27:55 10° N
Centaur D-1A AC-31 3.7 19:05:05 10° W 19:44:34 52° SSW 19:50:25 10° SE
